Time,TemperatureF,DewpointF,PressureIn,WindDirection,WindDirectionDegrees,WindSpeedMPH,WindSpeedGustMPH,Humidity,HourlyPrecipIn,Conditions,Clouds,dailyrainin,SoftwareType,DateUTC
2013-01-11 00:05:00,43.5,27.0,30.44,East,90,1.0,3.0,52,0.00,OVC,OVC,0.00,WeatherDisplay:10.31,2013-01-11 05:05:00,
2013-01-11 00:10:00,43.5,27.0,30.44,East,90,1.0,3.0,52,0.00,OVC,OVC,0.00,WeatherDisplay:10.31,2013-01-11 05:10:00,
2013-01-11 00:20:00,43.3,27.3,30.44,East,90,1.0,3.0,53,0.00,OVC,OVC,0.00,WeatherDisplay:10.31,2013-01-11 05:20:00,
2013-01-11 00:30:00,43.2,27.2,30.44,East,90,1.0,3.0,53,0.00,OVC,OVC,0.00,WeatherDisplay:10.31,2013-01-11 05:30:00,
2013-01-11 00:40:00,43.1,27.1,30.43,East,90,1.0,3.0,53,0.00,OVC,OVC,0.00,WeatherDisplay:10.31,2013-01-11 05:40:00,
2013-01-11 00:50:00,43.1,27.1,30.43,East,90,2.0,3.0,53,0.00,OVC,OVC,0.00,WeatherDisplay:10.31,2013-01-11 05:50:00,
2013-01-11 00:55:00,43.1,27.1,30.44,East,90,1.0,3.0,53,0.00,OVC,OVC,0.00,WeatherDisplay:10.31,2013-01-11 05:55:00,
2013-01-11 01:00:00,42.9,26.9,30.43,East,90,0.0,3.0,53,0.00,OVC,OVC,0.00,WeatherDisplay:10.31,2013-01-11 06:00:00,
2013-01-11 01:05:00,42.9,26.9,30.43,East,90,1.0,3.0,53,0.00,OVC,OVC,0.00,WeatherDisplay:10.31,2013-01-11 06:05:00,
2013-01-11 01:15:00,42.8,26.8,30.43,East,90,1.0,3.0,53,0.00,OVC,OVC,0.00,WeatherDisplay:10.31,2013-01-11 06:15:00,
2013-01-11 01:20:00,42.8,26.8,30.43,East,90,1.0,3.0,53,0.00,OVC,OVC,0.00,WeatherDisplay:10.31,2013-01-11 06:20:00,
2013-01-11 01:30:00,42.6,26.6,30.43,East,90,2.0,3.0,53,0.00,OVC,OVC,0.00,WeatherDisplay:10.31,2013-01-11 06:30:00,
2013-01-11 01:40:00,42.5,26.6,30.43,East,90,1.0,3.0,53,0.00,OVC,OVC,0.00,WeatherDisplay:10.31,2013-01-11 06:40:00,
2013-01-11 01:45:00,42.5,26.6,30.42,East,90,2.0,3.0,53,0.00,OVC,OVC,0.00,WeatherDisplay:10.31,2013-01-11 06:45:00,
2013-01-11 01:50:00,42.3,26.4,30.42,East,90,2.0,3.0,53,0.00,OVC,OVC,0.00,WeatherDisplay:10.31,2013-01-11 06:50:00,
2013-01-11 02:00:00,42.2,26.7,30.42,East,90,2.0,3.0,54,0.00,OVC,OVC,0.00,WeatherDisplay:10.31,2013-01-11 07:00:00,
2013-01-11 02:10:00,42.2,26.7,30.43,East,90,0.0,2.0,54,0.00,OVC,OVC,0.00,WeatherDisplay:10.31,2013-01-11 07:10:00,
2013-01-11 02:20:00,42.1,26.6,30.43,East,90,1.0,2.0,54,0.00,OVC,OVC,0.00,WeatherDisplay:10.31,2013-01-11 07:20:00,
2013-01-11 02:30:00,41.9,26.9,30.42,East,90,1.0,2.0,55,0.00,OVC,OVC,0.00,WeatherDisplay:10.31,2013-01-11 07:30:00,
2013-01-11 02:40:00,41.8,26.8,30.41,East,90,1.0,2.0,55,0.00,OVC,OVC,0.00,WeatherDisplay:10.31,2013-01-11 07:40:00,
2013-01-11 02:50:00,41.6,26.6,30.41,East,90,1.0,5.0,55,0.00,OVC,OVC,0.00,WeatherDisplay:10.31,2013-01-11 07:50:00,
2013-01-11 03:00:00,41.5,27.0,30.41,East,90,1.0,3.0,56,0.00,OVC,OVC,0.00,WeatherDisplay:10.31,2013-01-11 08:00:00,
2013-01-11 03:05:00,41.5,27.0,30.41,East,90,1.0,3.0,56,0.00,OVC,OVC,0.00,WeatherDisplay:10.31,2013-01-11 08:05:00,
2013-01-11 03:10:00,41.5,27.0,30.41,East,90,1.0,3.0,56,0.00,OVC,OVC,0.00,WeatherDisplay:10.31,2013-01-11 08:10:00,
2013-01-11 03:20:00,41.3,26.8,30.41,East,90,1.0,3.0,56,0.00,OVC,OVC,0.00,WeatherDisplay:10.31,2013-01-11 08:20:00,
2013-01-11 03:30:00,41.2,27.1,30.40,East,90,0.0,2.0,57,0.00,OVC,OVC,0.00,WeatherDisplay:10.31,2013-01-11 08:30:00,
2013-01-11 03:40:00,41.2,27.1,30.40,East,90,0.0,3.0,57,0.00,OVC,OVC,0.00,WeatherDisplay:10.31,2013-01-11 08:40:00,
2013-01-11 03:50:00,41.1,27.0,30.40,East,97,0.0,5.0,57,0.00,OVC,OVC,0.00,WeatherDisplay:10.31,2013-01-11 08:50:00,
2013-01-11 04:00:00,41.1,27.0,30.40,ESE,113,2.0,3.0,57,0.00,OVC,OVC,0.00,WeatherDisplay:10.31,2013-01-11 09:00:00,
2013-01-11 04:05:00,41.1,27.0,30.40,ESE,113,1.0,3.0,57,0.00,OVC,OVC,0.00,WeatherDisplay:10.31,2013-01-11 09:05:00,
2013-01-11 04:10:00,40.9,26.8,30.40,ESE,113,2.0,5.0,57,0.00,OVC,OVC,0.00,WeatherDisplay:10.31,2013-01-11 09:10:00,
2013-01-11 04:20:00,40.9,26.8,30.39,ESE,113,1.0,3.0,57,0.00,OVC,OVC,0.00,WeatherDisplay:10.31,2013-01-11 09:20:00,
2013-01-11 04:30:00,40.9,27.2,30.39,ESE,113,1.0,3.0,58,0.00,OVC,OVC,0.00,WeatherDisplay:10.31,2013-01-11 09:30:00,
2013-01-11 04:40:00,40.8,27.2,30.38,ESE,113,2.0,3.0,58,0.00,OVC,OVC,0.00,WeatherDisplay:10.31,2013-01-11 09:40:00,
2013-01-11 04:50:00,40.6,27.0,30.39,ESE,113,1.0,2.0,58,0.00,OVC,OVC,0.00,WeatherDisplay:10.31,2013-01-11 09:50:00,
2013-01-11 05:00:00,40.5,26.9,30.39,ESE,113,1.0,3.0,58,0.00,OVC,OVC,0.00,WeatherDisplay:10.31,2013-01-11 10:00:00,
2013-01-11 05:10:00,40.3,27.1,30.39,ESE,113,0.0,2.0,59,0.00,OVC,OVC,0.00,WeatherDisplay:10.31,2013-01-11 10:10:00,
2013-01-11 05:15:00,40.3,27.1,30.38,ESE,113,0.0,1.0,59,0.00,OVC,OVC,0.00,WeatherDisplay:10.31,2013-01-11 10:15:00,
2013-01-11 05:20:00,40.3,27.1,30.37,ESE,113,1.0,2.0,59,0.00,OVC,OVC,0.00,WeatherDisplay:10.31,2013-01-11 10:20:00,
2013-01-11 05:30:00,40.2,27.0,30.37,ESE,113,0.0,1.0,59,0.00,OVC,OVC,0.00,WeatherDisplay:10.31,2013-01-11 10:30:00,
2013-01-11 05:40:00,40.1,27.3,30.39,ESE,113,0.0,2.0,60,0.00,OVC,OVC,0.00,WeatherDisplay:10.31,2013-01-11 10:40:00,
2013-01-11 05:50:00,39.8,27.4,30.39,ESE,113,1.0,2.0,61,0.00,OVC,OVC,0.00,WeatherDisplay:10.31,2013-01-11 10:50:00,
2013-01-11 05:55:00,39.6,27.2,30.37,ESE,113,1.0,3.0,61,0.00,OVC,OVC,0.00,WeatherDisplay:10.31,2013-01-11 10:55:00,
2013-01-11 06:05:00,39.6,27.2,30.37,ESE,113,1.0,2.0,61,0.00,OVC,OVC,0.00,WeatherDisplay:10.31,2013-01-11 11:05:00,
2013-01-11 06:10:00,39.5,27.2,30.37,ESE,113,2.0,3.0,61,0.00,OVC,OVC,0.00,WeatherDisplay:10.31,2013-01-11 11:10:00,
2013-01-11 06:20:00,39.5,27.2,30.37,ESE,113,1.0,3.0,61,0.00,OVC,OVC,0.00,WeatherDisplay:10.31,2013-01-11 11:20:00,
2013-01-11 06:30:00,39.3,27.4,30.36,ESE,113,1.0,2.0,62,0.00,OVC,OVC,0.00,WeatherDisplay:10.31,2013-01-11 11:30:00,
2013-01-11 06:35:00,39.3,27.0,30.35,ESE,113,2.0,2.0,61,0.00,OVC,OVC,0.00,WeatherDisplay:10.31,2013-01-11 11:35:00,
2013-01-11 06:45:00,39.2,27.7,30.35,ESE,113,1.0,3.0,63,0.00,OVC,OVC,0.00,WeatherDisplay:10.31,2013-01-11 11:45:00,
2013-01-11 06:50:00,39.2,27.7,30.35,ESE,113,1.0,2.0,63,0.00,OVC,OVC,0.00,WeatherDisplay:10.31,2013-01-11 11:50:00,
2013-01-11 07:00:00,39.2,28.0,30.35,ESE,113,0.0,2.0,64,0.00,OVC,OVC,0.00,WeatherDisplay:10.31,2013-01-11 12:00:00,
2013-01-11 07:05:00,39.2,28.4,30.35,ESE,113,0.0,2.0,65,0.00,OVC,OVC,0.00,WeatherDisplay:10.31,2013-01-11 12:05:00,
2013-01-11 07:10:00,39.2,28.4,30.35,ESE,113,0.0,2.0,65,0.00,OVC,OVC,0.00,WeatherDisplay:10.31,2013-01-11 12:10:00,
2013-01-11 07:20:00,39.2,28.8,30.36,ESE,113,0.0,1.0,66,0.00,OVC,OVC,0.00,WeatherDisplay:10.31,2013-01-11 12:20:00,
2013-01-11 07:30:00,39.2,28.8,30.36,ESE,113,0.0,1.0,66,0.00,OVC,OVC,0.00,WeatherDisplay:10.31,2013-01-11 12:30:00,
2013-01-11 07:40:00,39.3,29.3,30.36,ESE,113,0.0,2.0,67,0.00,OVC,OVC,0.00,WeatherDisplay:10.31,2013-01-11 12:40:00,
2013-01-11 07:50:00,39.3,29.3,30.35,ESE,113,1.0,2.0,67,0.00,OVC,OVC,0.00,WeatherDisplay:10.31,2013-01-11 12:50:00,
2013-01-11 08:00:00,39.5,29.8,30.35,ESE,113,1.0,2.0,68,0.00,OVC,OVC,0.00,WeatherDisplay:10.31,2013-01-11 13:00:00,
2013-01-11 08:05:00,39.6,29.9,30.35,ESE,113,0.0,2.0,68,0.00,OVC,OVC,0.00,WeatherDisplay:10.31,2013-01-11 13:05:00,
2013-01-11 08:10:00,39.8,30.5,30.35,ESE,113,0.0,2.0,69,0.00,OVC,OVC,0.00,WeatherDisplay:10.31,2013-01-11 13:10:00,
2013-01-11 08:20:00,39.9,30.5,30.36,ESE,113,1.0,2.0,69,0.00,BKN,BKN,0.00,WeatherDisplay:10.31,2013-01-11 13:20:00,
2013-01-11 08:30:00,40.1,30.0,30.34,ESE,113,2.0,3.0,67,0.00,BKN,BKN,0.00,WeatherDisplay:10.31,2013-01-11 13:30:00,
2013-01-11 08:40:00,40.2,30.5,30.35,ESE,113,0.0,1.0,68,0.00,SCT,SCT,0.00,WeatherDisplay:10.31,2013-01-11 13:40:00,
2013-01-11 08:50:00,40.5,30.4,30.34,ESE,113,1.0,2.0,67,0.00,BKN,BKN,0.00,WeatherDisplay:10.31,2013-01-11 13:50:00,
2013-01-11 09:00:00,40.8,30.7,30.35,ESE,113,1.0,3.0,67,0.00,OVC,OVC,0.00,WeatherDisplay:10.31,2013-01-11 14:00:00,
2013-01-11 09:05:00,40.9,30.8,30.34,ESE,113,1.0,2.0,67,0.00,OVC,OVC,0.00,WeatherDisplay:10.31,2013-01-11 14:05:00,
2013-01-11 09:10:00,40.9,30.4,30.35,ESE,113,0.0,2.0,66,0.00,OVC,OVC,0.00,WeatherDisplay:10.31,2013-01-11 14:10:00,
2013-01-11 09:20:00,41.1,31.0,30.34,ESE,113,1.0,2.0,67,0.00,OVC,OVC,0.00,WeatherDisplay:10.31,2013-01-11 14:20:00,
2013-01-11 09:30:00,41.2,31.1,30.33,ESE,113,1.0,3.0,67,0.00,OVC,OVC,0.00,WeatherDisplay:10.31,2013-01-11 14:30:00,
2013-01-11 09:35:00,41.2,30.7,30.33,ESE,113,1.0,2.0,66,0.00,BKN,BKN,0.00,WeatherDisplay:10.31,2013-01-11 14:35:00,
2013-01-11 09:40:00,41.3,30.8,30.34,ESE,113,2.0,3.0,66,0.00,BKN,BKN,0.00,WeatherDisplay:10.31,2013-01-11 14:40:00,
2013-01-11 09:50:00,41.6,31.1,30.33,ESE,113,1.0,5.0,66,0.00,BKN,BKN,0.00,WeatherDisplay:10.31,2013-01-11 14:50:00,
2013-01-11 10:00:00,42.1,31.2,30.33,ESE,113,1.0,3.0,65,0.00,BKN,BKN,0.00,WeatherDisplay:10.31,2013-01-11 15:00:00,
2013-01-11 10:05:00,42.3,31.4,30.32,ESE,113,2.0,5.0,65,0.00,OVC,OVC,0.00,WeatherDisplay:10.31,2013-01-11 15:05:00,
2013-01-11 10:10:00,42.5,30.8,30.32,ESE,115,2.0,5.0,63,0.00,OVC,OVC,0.00,WeatherDisplay:10.31,2013-01-11 15:10:00,
2013-01-11 10:20:00,42.6,29.7,30.33,SE,135,2.0,3.0,60,0.00,OVC,OVC,0.00,WeatherDisplay:10.31,2013-01-11 15:20:00,
2013-01-11 10:30:00,42.9,29.9,30.32,SSE,151,2.0,6.0,60,0.00,OVC,OVC,0.00,WeatherDisplay:10.31,2013-01-11 15:30:00,
2013-01-11 10:40:00,42.9,29.5,30.31,SE,139,0.0,3.0,59,0.00,OVC,OVC,0.00,WeatherDisplay:10.31,2013-01-11 15:40:00,
2013-01-11 10:50:00,43.1,30.1,30.30,SE,135,1.0,5.0,60,0.00,OVC,OVC,0.00,WeatherDisplay:10.31,2013-01-11 15:50:00,
2013-01-11 11:00:00,43.2,30.6,30.30,SE,135,2.0,3.0,61,0.00,OVC,OVC,0.00,WeatherDisplay:10.31,2013-01-11 16:00:00,
2013-01-11 11:05:00,43.3,30.7,30.30,SE,135,1.0,5.0,61,0.00,OVC,OVC,0.00,WeatherDisplay:10.31,2013-01-11 16:05:00,
2013-01-11 11:10:00,43.2,30.6,30.30,SE,146,2.0,6.0,61,0.00,OVC,OVC,0.00,WeatherDisplay:10.31,2013-01-11 16:10:00,
2013-01-11 11:20:00,43.2,30.6,30.27,SSE,158,1.0,3.0,61,0.00,OVC,OVC,0.00,WeatherDisplay:10.31,2013-01-11 16:20:00,
2013-01-11 11:30:00,43.3,30.7,30.27,SE,140,1.0,3.0,61,0.00,OVC,OVC,0.00,WeatherDisplay:10.31,2013-01-11 16:30:00,
2013-01-11 11:40:00,43.6,31.4,30.25,SE,135,0.0,2.0,62,0.00,OVC,OVC,0.00,WeatherDisplay:10.31,2013-01-11 16:40:00,
2013-01-11 11:50:00,43.9,31.7,30.25,SE,135,1.0,6.0,62,0.00,OVC,OVC,0.00,WeatherDisplay:10.31,2013-01-11 16:50:00,
2013-01-11 12:00:00,44.1,31.9,30.25,SE,135,3.0,6.0,62,0.00,OVC,OVC,0.00,WeatherDisplay:10.31,2013-01-11 17:00:00,
2013-01-11 12:05:00,44.1,32.3,30.24,SE,135,0.0,5.0,63,0.00,OVC,OVC,0.00,WeatherDisplay:10.31,2013-01-11 17:05:00,
2013-01-11 12:10:00,44.2,32.4,30.23,SE,135,2.0,5.0,63,0.00,OVC,OVC,0.00,WeatherDisplay:10.31,2013-01-11 17:10:00,
2013-01-11 12:20:00,44.3,32.9,30.23,SE,135,1.0,6.0,64,0.00,OVC,OVC,0.00,WeatherDisplay:10.31,2013-01-11 17:20:00,
2013-01-11 12:30:00,44.2,33.2,30.22,SE,129,3.0,7.0,65,0.00,OVC,OVC,0.00,WeatherDisplay:10.31,2013-01-11 17:30:00,
2013-01-11 12:40:00,44.2,33.6,30.22,SE,135,2.0,7.0,66,0.00,OVC,OVC,0.00,WeatherDisplay:10.31,2013-01-11 17:40:00,
2013-01-11 12:50:00,44.2,34.3,30.21,SE,135,0.0,3.0,68,0.00,OVC,OVC,0.00,WeatherDisplay:10.31,2013-01-11 17:50:00,
2013-01-11 13:00:00,44.2,34.7,30.20,SE,135,1.0,2.0,69,0.00,OVC,OVC,0.00,WeatherDisplay:10.31,2013-01-11 18:00:00,
2013-01-11 13:05:00,44.2,34.7,30.19,SE,135,1.0,3.0,69,0.00,OVC,OVC,0.00,WeatherDisplay:10.31,2013-01-11 18:05:00,
2013-01-11 13:10:00,44.2,34.7,30.19,SE,135,0.0,1.0,69,0.00,OVC,OVC,0.00,WeatherDisplay:10.31,2013-01-11 18:10:00,
2013-01-11 13:20:00,44.3,35.5,30.19,SE,135,0.0,2.0,71,0.00,OVC,OVC,0.00,WeatherDisplay:10.31,2013-01-11 18:20:00,
2013-01-11 13:30:00,44.6,36.1,30.18,SE,135,0.0,3.0,72,0.00,OVC,OVC,0.00,WeatherDisplay:10.31,2013-01-11 18:30:00,
2013-01-11 13:40:00,44.6,36.5,30.17,SE,135,1.0,3.0,73,0.00,OVC,OVC,0.00,WeatherDisplay:10.31,2013-01-11 18:40:00,
2013-01-11 13:50:00,44.8,37.0,30.17,SE,135,1.0,3.0,74,0.00,OVC,OVC,0.00,WeatherDisplay:10.31,2013-01-11 18:50:00,
2013-01-11 13:55:00,44.8,37.0,30.17,SE,135,2.0,3.0,74,0.00,OVC,OVC,0.00,WeatherDisplay:10.31,2013-01-11 18:55:00,
2013-01-11 14:00:00,44.6,36.8,30.18,SE,135,2.0,3.0,74,0.00,OVC,OVC,0.00,WeatherDisplay:10.31,2013-01-11 19:00:00,
2013-01-11 14:05:00,44.6,36.8,30.17,SE,135,3.0,3.0,74,0.00,OVC,OVC,0.00,WeatherDisplay:10.31,2013-01-11 19:05:00,
2013-01-11 14:10:00,44.5,36.7,30.17,SE,135,2.0,3.0,74,0.00,OVC,OVC,0.00,WeatherDisplay:10.31,2013-01-11 19:10:00,
2013-01-11 14:20:00,44.3,36.9,30.17,SE,135,3.0,5.0,75,0.00,OVC,OVC,0.00,WeatherDisplay:10.31,2013-01-11 19:20:00,
2013-01-11 14:30:00,44.2,37.1,30.15,SSE,151,6.0,7.0,76,0.00,OVC,OVC,0.00,WeatherDisplay:10.31,2013-01-11 19:30:00,
2013-01-11 14:40:00,44.1,37.3,30.16,SSE,158,5.0,7.0,77,0.00,OVC,OVC,0.00,WeatherDisplay:10.31,2013-01-11 19:40:00,
2013-01-11 14:50:00,43.9,37.5,30.14,SSE,158,0.0,5.0,78,0.00,OVC,OVC,0.00,WeatherDisplay:10.31,2013-01-11 19:50:00,
2013-01-11 15:00:00,43.8,38.0,30.15,SSE,158,2.0,5.0,80,0.01,RA,RA,0.01,WeatherDisplay:10.31,2013-01-11 20:00:00,
2013-01-11 15:10:00,43.6,38.5,30.16,SSE,158,3.0,3.0,82,0.00,OVC,OVC,0.01,WeatherDisplay:10.31,2013-01-11 20:10:00,
2013-01-11 15:20:00,43.3,38.5,30.15,SSE,158,0.0,2.0,83,0.00,OVC,OVC,0.01,WeatherDisplay:10.31,2013-01-11 20:20:00,
2013-01-11 15:30:00,43.2,38.7,30.14,SSE,157,0.0,3.0,84,0.00,OVC,OVC,0.01,WeatherDisplay:10.31,2013-01-11 20:30:00,
2013-01-11 15:40:00,43.1,38.9,30.14,SSE,158,3.0,3.0,85,0.00,OVC,OVC,0.01,WeatherDisplay:10.31,2013-01-11 20:40:00,
2013-01-11 15:50:00,42.9,39.0,30.14,SSE,158,2.0,3.0,86,0.00,OVC,OVC,0.01,WeatherDisplay:10.31,2013-01-11 20:50:00,
2013-01-11 15:55:00,42.9,39.0,30.13,SSE,158,0.0,2.0,86,0.00,OVC,OVC,0.01,WeatherDisplay:10.31,2013-01-11 20:55:00,
2013-01-11 16:05:00,42.8,38.9,30.14,SSE,158,0.0,2.0,86,0.00,OVC,OVC,0.01,WeatherDisplay:10.31,2013-01-11 21:05:00,
2013-01-11 16:10:00,42.8,39.2,30.14,SSE,158,2.0,3.0,87,0.00,OVC,OVC,0.01,WeatherDisplay:10.31,2013-01-11 21:10:00,
2013-01-11 16:20:00,42.6,39.0,30.13,SSE,158,2.0,3.0,87,0.00,OVC,OVC,0.01,WeatherDisplay:10.31,2013-01-11 21:20:00,
2013-01-11 16:30:00,42.6,39.0,30.13,SSE,158,1.0,3.0,87,0.00,OVC,OVC,0.01,WeatherDisplay:10.31,2013-01-11 21:30:00,
2013-01-11 16:40:00,42.5,39.2,30.11,SSE,158,3.0,3.0,88,0.00,OVC,OVC,0.01,WeatherDisplay:10.31,2013-01-11 21:40:00,
2013-01-11 16:50:00,42.5,39.2,30.11,SSE,158,5.0,6.0,88,0.00,OVC,OVC,0.01,WeatherDisplay:10.31,2013-01-11 21:50:00,
2013-01-11 17:00:00,42.3,39.3,30.11,SSE,158,3.0,3.0,89,0.00,OVC,OVC,0.01,WeatherDisplay:10.31,2013-01-11 22:00:00,
2013-01-11 17:05:00,42.3,39.3,30.11,SSE,158,2.0,3.0,89,0.00,OVC,OVC,0.01,WeatherDisplay:10.31,2013-01-11 22:05:00,
2013-01-11 17:10:00,42.2,39.2,30.10,SSE,158,2.0,3.0,89,0.00,OVC,OVC,0.01,WeatherDisplay:10.31,2013-01-11 22:10:00,
2013-01-11 17:15:00,42.2,39.2,30.11,SSE,158,2.0,6.0,89,0.00,OVC,OVC,0.01,WeatherDisplay:10.31,2013-01-11 22:15:00,
2013-01-11 17:20:00,42.2,39.5,30.10,SSE,158,2.0,3.0,90,0.01,RA,RA,0.02,WeatherDisplay:10.31,2013-01-11 22:20:00,
2013-01-11 17:30:00,42.3,39.6,30.09,SSE,158,1.0,3.0,90,0.00,OVC,OVC,0.02,WeatherDisplay:10.31,2013-01-11 22:30:00,
2013-01-11 17:40:00,42.3,39.6,30.09,SSE,158,2.0,3.0,90,0.00,OVC,OVC,0.02,WeatherDisplay:10.31,2013-01-11 22:40:00,
2013-01-11 17:45:00,42.3,39.9,30.09,SSE,158,1.0,3.0,91,0.00,OVC,OVC,0.02,WeatherDisplay:10.31,2013-01-11 22:45:00,
2013-01-11 17:50:00,42.3,39.9,30.09,SSE,158,2.0,3.0,91,0.00,OVC,OVC,0.02,WeatherDisplay:10.31,2013-01-11 22:50:00,
2013-01-11 18:00:00,42.2,39.8,30.09,SSE,158,2.0,5.0,91,0.00,OVC,OVC,0.02,WeatherDisplay:10.31,2013-01-11 23:00:00,
2013-01-11 18:05:00,42.2,39.8,30.09,SSE,158,2.0,3.0,91,0.00,OVC,OVC,0.02,WeatherDisplay:10.31,2013-01-11 23:05:00,
2013-01-11 18:10:00,42.2,39.8,30.10,SSE,158,2.0,3.0,91,0.00,OVC,OVC,0.02,WeatherDisplay:10.31,2013-01-11 23:10:00,
2013-01-11 18:20:00,42.2,39.8,30.09,SSE,158,2.0,3.0,91,0.00,OVC,OVC,0.02,WeatherDisplay:10.31,2013-01-11 23:20:00,
2013-01-11 18:30:00,42.3,40.1,30.09,SSE,158,2.0,3.0,92,0.00,OVC,OVC,0.02,WeatherDisplay:10.31,2013-01-11 23:30:00,
2013-01-11 18:40:00,42.3,40.1,30.09,SSE,158,0.0,2.0,92,0.00,OVC,OVC,0.02,WeatherDisplay:10.31,2013-01-11 23:40:00,
2013-01-11 18:50:00,42.5,40.3,30.08,SSE,158,0.0,1.0,92,0.00,OVC,OVC,0.02,WeatherDisplay:10.31,2013-01-11 23:50:00,
2013-01-11 19:00:00,42.5,40.3,30.08,SSE,158,0.0,1.0,92,0.00,OVC,OVC,0.02,WeatherDisplay:10.31,2013-01-12 00:00:00,
2013-01-11 19:05:00,42.5,40.3,30.09,SSE,158,0.0,2.0,92,0.00,OVC,OVC,0.02,WeatherDisplay:10.31,2013-01-12 00:05:00,
2013-01-11 19:10:00,42.5,40.3,30.08,SSE,158,0.0,1.0,92,0.00,OVC,OVC,0.02,WeatherDisplay:10.31,2013-01-12 00:10:00,
2013-01-11 19:20:00,42.5,40.3,30.08,SSE,158,1.0,2.0,92,0.00,OVC,OVC,0.02,WeatherDisplay:10.31,2013-01-12 00:20:00,
2013-01-11 19:30:00,42.5,40.3,30.08,SSE,158,1.0,3.0,92,0.00,OVC,OVC,0.02,WeatherDisplay:10.31,2013-01-12 00:30:00,
2013-01-11 19:40:00,42.6,40.4,30.08,SSE,158,0.0,2.0,92,0.00,OVC,OVC,0.02,WeatherDisplay:10.31,2013-01-12 00:40:00,
2013-01-11 19:50:00,42.8,40.6,30.07,SSE,158,1.0,3.0,92,0.00,OVC,OVC,0.02,WeatherDisplay:10.31,2013-01-12 00:50:00,
2013-01-11 20:00:00,42.8,40.6,30.07,SSE,158,0.0,3.0,92,0.00,OVC,OVC,0.02,WeatherDisplay:10.31,2013-01-12 01:00:00,
2013-01-11 20:05:00,42.8,40.6,30.06,SSE,158,3.0,3.0,92,0.00,OVC,OVC,0.02,WeatherDisplay:10.31,2013-01-12 01:05:00,
2013-01-11 20:10:00,42.8,40.6,30.06,SSE,158,2.0,3.0,92,0.00,OVC,OVC,0.02,WeatherDisplay:10.31,2013-01-12 01:10:00,
2013-01-11 20:20:00,42.8,40.6,30.07,SSE,158,1.0,2.0,92,0.00,OVC,OVC,0.02,WeatherDisplay:10.31,2013-01-12 01:20:00,
2013-01-11 20:30:00,42.8,40.6,30.07,SSE,158,2.0,3.0,92,0.00,OVC,OVC,0.02,WeatherDisplay:10.31,2013-01-12 01:30:00,
2013-01-11 20:40:00,42.6,40.4,30.06,SSE,158,2.0,5.0,92,0.00,OVC,OVC,0.02,WeatherDisplay:10.31,2013-01-12 01:40:00,
2013-01-11 20:50:00,42.6,40.7,30.07,SSE,158,3.0,5.0,93,0.00,OVC,OVC,0.02,WeatherDisplay:10.31,2013-01-12 01:50:00,
2013-01-11 20:55:00,42.6,40.7,30.06,SSE,164,3.0,5.0,93,0.00,OVC,OVC,0.02,WeatherDisplay:10.31,2013-01-12 01:55:00,
2013-01-11 21:00:00,42.6,40.7,30.06,South,174,0.0,3.0,93,0.00,OVC,OVC,0.02,WeatherDisplay:10.31,2013-01-12 02:00:00,
2013-01-11 21:10:00,42.6,40.7,30.06,South,180,1.0,3.0,93,0.00,OVC,OVC,0.02,WeatherDisplay:10.31,2013-01-12 02:10:00,
2013-01-11 21:20:00,42.6,40.7,30.06,South,180,2.0,3.0,93,0.00,OVC,OVC,0.02,WeatherDisplay:10.31,2013-01-12 02:20:00,
2013-01-11 21:25:00,42.6,40.7,30.06,South,180,2.0,3.0,93,0.00,OVC,OVC,0.02,WeatherDisplay:10.31,2013-01-12 02:25:00,
2013-01-11 21:30:00,42.6,40.7,30.06,South,180,1.0,3.0,93,0.00,OVC,OVC,0.02,WeatherDisplay:10.31,2013-01-12 02:30:00,
2013-01-11 21:40:00,42.6,40.7,30.06,South,180,1.0,3.0,93,0.00,OVC,OVC,0.02,WeatherDisplay:10.31,2013-01-12 02:40:00,
2013-01-11 21:50:00,42.7,40.8,30.06,South,180,0.0,2.0,93,0.00,OVC,OVC,0.02,WeatherDisplay:10.31,2013-01-12 02:50:00,
2013-01-11 22:00:00,42.8,40.9,30.06,South,184,2.0,5.0,93,0.00,OVC,OVC,0.02,WeatherDisplay:10.31,2013-01-12 03:00:00,
2013-01-11 22:05:00,42.9,41.3,30.06,SSW,195,3.0,3.0,94,0.00,OVC,OVC,0.02,WeatherDisplay:10.31,2013-01-12 03:05:00,
2013-01-11 22:10:00,42.9,41.0,30.06,SSW,210,2.0,5.0,93,0.00,OVC,OVC,0.02,WeatherDisplay:10.31,2013-01-12 03:10:00,
2013-01-11 22:20:00,42.9,41.0,30.05,SW,225,3.0,3.0,93,0.00,OVC,OVC,0.02,WeatherDisplay:10.31,2013-01-12 03:20:00,
2013-01-11 22:30:00,43.1,41.2,30.05,SW,225,5.0,7.0,93,0.00,OVC,OVC,0.02,WeatherDisplay:10.31,2013-01-12 03:30:00,
2013-01-11 22:40:00,43.1,41.2,30.05,SW,225,1.0,3.0,93,0.00,OVC,OVC,0.02,WeatherDisplay:10.31,2013-01-12 03:40:00,
2013-01-11 22:45:00,42.9,41.0,30.05,SW,225,1.0,3.0,93,0.00,OVC,OVC,0.02,WeatherDisplay:10.31,2013-01-12 03:45:00,
2013-01-11 22:50:00,43.1,41.2,30.05,SW,225,2.0,3.0,93,0.00,OVC,OVC,0.02,WeatherDisplay:10.31,2013-01-12 03:50:00,
2013-01-11 23:00:00,43.1,41.2,30.04,SW,228,3.0,5.0,93,0.00,OVC,OVC,0.02,WeatherDisplay:10.31,2013-01-12 04:00:00,
2013-01-11 23:10:00,42.9,41.0,30.05,WSW,247,2.0,8.0,93,0.00,OVC,OVC,0.02,WeatherDisplay:10.31,2013-01-12 04:10:00,
2013-01-11 23:20:00,42.9,41.0,30.04,West,269,6.0,7.0,93,0.00,OVC,OVC,0.02,WeatherDisplay:10.31,2013-01-12 04:20:00,
2013-01-11 23:25:00,42.8,40.9,30.04,West,270,3.0,5.0,93,0.00,OVC,OVC,0.02,WeatherDisplay:10.31,2013-01-12 04:25:00,
2013-01-11 23:30:00,42.8,40.9,30.05,West,270,3.0,6.0,93,0.00,OVC,OVC,0.02,WeatherDisplay:10.31,2013-01-12 04:30:00,
2013-01-11 23:40:00,42.8,40.9,30.05,West,270,5.0,7.0,93,0.00,OVC,OVC,0.02,WeatherDisplay:10.31,2013-01-12 04:40:00,
2013-01-11 23:50:00,42.6,41.0,30.05,West,270,2.0,9.0,94,0.00,OVC,OVC,0.02,WeatherDisplay:10.31,2013-01-12 04:50:00,